Tracking 29892 objects as of 21-Nov-2024
HD Live streaming from Space Station
objects crossing your sky now

SL-6 R/B(2)

Track SL-6 R/B(2) now!


NORAD ID: 10089
Int'l Code: 1977-047D
Perigee: 4,613.8 km
Apogee: 35,984.0 km
Inclination: 66.4 °
Period: 722.4 minutes
Semi major axis: 26669 km
RCS: 4.9235 m2 (large)
Launch date: June 16, 1977
Source: Commonwealth of Independent States (former USSR) (CIS)
Launch site: PLESETSK MISSILE AND SPACE COMPLEX (PKMTR)

Note: This is a ROCKET BODY
Your satellite tracking list
Your tracking list is empty




NASA's NSSDC Master Catalog

Two Line Element Set (TLE):
1 10089U 77047D   24325.38142793 -.00000584  00000-0  00000-0 0  9994
2 10089  66.3904 131.1011 5881210 314.7720  10.2372  1.99329675249017
Source of the keplerian elements: AFSPC